Regional Weather Roundup
Issued by NWS

Home | Current Version | Previous Version | Text Only | Print | Product List | Glossary Off
Versions: 1 2 3 4 5 6 7 8 9 10 11 12 13 14 15 16 17 18 19 20 21 22 23 24 25 26 27 28 29 30 31 32 33 34 35 36 37 38 39 40 41 42 43 44 45 46 47 48 49

249
ASUS45 KSLC 231910
RWRUT

UTAH REGIONAL WEATHER ROUNDUP
NATIONAL WEATHER SERVICE SALT LAKE CITY UT
100 PM MDT MON MAY 23 2016

UTZ001>011-023>025-232000-

NORTHERN UTAH

CITY           SKY/WX    TMP DP  RH WIND       PRES   REMARKS
BRIGHAM CITY     N/A     60  29  30 CALM      29.93F
DUGWAY         MOSUNNY   68  30  24 W5        29.90F
HILL AFB       MOSUNNY   60  29  30 NW8       29.92F
LOGAN          SUNNY     58  32  37 S5        29.92F
OGDEN          MOSUNNY   62  31  31 N5        29.91F
PROVO AIRPORT  NOT AVBL
SALT LAKE CITY PTSUNNY   63  32  31 N5        29.90F
VERNAL         SUNNY     61  29  29 W5        29.92F
WENDOVER       SUNNY     61  30  31 E5        29.91F
HEBER CITY     PTSUNNY   64  28  25 SW6       29.89F
WEST JORDAN    SUNNY     61  32  33 CALM      29.92F

$$

UTZ012>022-026-027-232000-

SOUTHERN/CENTRAL UTAH

CITY           SKY/WX    TMP DP  RH WIND       PRES   REMARKS
BLANDING       SUNNY     65  19  16 SE8       30.02F
BRYCE CANYON   SUNNY     58  17  20 SE10      29.98F
CEDAR CITY     SUNNY     68  18  14 SW13G18   29.90F
DELTA          SUNNY     64  30  27 SW9       29.90F
HANKSVILLE     SUNNY     70  19  14 CALM      29.88F
MILFORD        SUNNY     66  19  16 S10       29.89F
MOAB/CYNLANDS  SUNNY     70  20  15 VRB6      29.85F
PRICE          PTSUNNY   62  18  18 SW9G18    29.92F
ST GEORGE      MOCLDY    73  25  16 NE3       29.85F
KANAB          SUNNY     70  18  13 CALM      29.94

$$

REGIONAL REPORTS     COLORADO/ARIZONA

CITY           SKY/WX    TMP DP  RH WIND       PRES   REMARKS
CRAIG, CO      CLOUDY    62  26  25 W8        29.94F
GRAND JUNCTION SUNNY     67  24  19 MISG      29.87F
RIFLE          MOSUNNY   64  26  23 N5        29.90F
MONTROSE       MOSUNNY   65  25  22 VRB5      29.91F
CORTEZ         SUNNY     67  18  15 SW12      29.96F
PAGE, AZ       SUNNY     72  16  12 E7        29.87F
GRAND CANYON   SUNNY     64  15  15 SW17G24   30.00F
KINGMAN        SUNNY     75  23  14 SW21G26   29.88F
FLAGSTAFF      SUNNY     59  18  20 S12G23    30.04S

$$

REGIONAL REPORTS    NEVADA/IDAHO/WYOMING

CITY           SKY/WX    TMP DP  RH WIND       PRES   REMARKS
LAS VEGAS, NV  MOSUNNY   78  27  15 S12       29.76F
ELY            CLOUDY    56  23  27 W3        29.90F
ELKO           SUNNY     60  31  33 VRB5      29.88F
POCATELLO, ID  MOSUNNY   60  34  37 W10G20    29.91F
BURLEY         MOSUNNY   61  36  39 VRB7      29.89F
EVANSTON, WY   CLOUDY    48  31  51 SW8       29.98S
ROCK SPRINGS   MOSUNNY   54  25  32 SW8       29.96F
KEMMERER         N/A     50  30  46 W23G33    29.98S

$$




USA.gov is the U.S. government's official web portal to all federal, state and local government web resources and services.